Regional Weather Roundup
Issued by NWS

Home | Current Version | Previous Version | Graphics & Text | Print | Product List | Glossary On
Versions: 1 2 3 4 5 6 7 8 9 10 11 12 13 14 15 16 17 18 19 20 21 22 23 24 25 26 27 28 29 30 31 32 33 34 35 36 37 38 39 40 41 42 43 44 45 46 47 48 49 50
000
ASUS43 KLOT 300912
RWRIL

ILLINOIS REGIONAL WEATHER ROUNDUP
NATIONAL WEATHER SERVICE CHICAGO/ROMEOVILLE IL
400 AM CDT SUN AUG 30 2015

NOTE: "FAIR" INDICATES FEW OR NO CLOUDS BELOW 12,000 FEET WITH NO
SIGNIFICANT WEATHER AND/OR OBSTRUCTIONS TO VISIBILITY.

* THESE STATIONS ARE NOT UNDER NWS QUALITY CONTROL. THEY ALSO MAY NOT
  REPORT WEATHER SUCH AS PRECIPITATION OR FOG.

ILZ001-002-007-009-015-016-024-301000-
NORTHWEST ILLINOIS

CITY           SKY/WX    TMP DP  RH WIND       PRES   REMARKS
MOLINE         FOG       60  59  96 CALM      30.03S VSB 1/4
STERLING*      CLOUDY    66  64  94 N3        30.01S
SAVANNA*       CLOUDY    66  63  90 CALM      30.03S
$$

ILZ003-004-008-010-011-017-018-301000-
NORTH CENTRAL ILLINOIS

CITY           SKY/WX    TMP DP  RH WIND       PRES   REMARKS
ROCKFORD       CLOUDY    66  62  87 CALM      30.05R
FREEPORT*      CLOUDY    63  63  98 N3        30.06R FOG
ROCHELLE*      CLOUDY    65  64  98 CALM      30.04S FOG
DE KALB*       FOG       64  64  97 CALM      30.04S VSB 3/4
PERU*          FOG       66  65  97 CALM      30.03R VSB<1/4
$$

ILZ005-006-012>014-019>023-301000-
NORTHEAST ILLINOIS

CITY           SKY/WX    TMP DP  RH WIND       PRES   REMARKS
CHICAGO-OHARE  CLOUDY    65  63  93 N5        30.02S
CHICAGO-MIDWAY CLOUDY    67  63  87 N3        30.02S FOG
AURORA         CLOUDY    66  64  93 NE5       30.03S FOG
LANSING*       CLOUDY    64  64  97 NE3       30.03R FOG
JOLIET*        CLOUDY    67  66  97 N3        30.02S FOG
WAUKEGAN       CLOUDY    63  63 100 CALM      30.02S FOG
DUPAGE AIRPORT CLOUDY    65  62  90 N3        30.02F FOG
KANKAKEE*      CLOUDY    67  67  99 CALM      30.02S FOG
WHEELING       CLOUDY    64  62  93 CALM      30.04R FOG
MORRIS*        CLOUDY    65  65  97 CALM      30.02S FOG
ROMEOVILLE*    CLOUDY    64  64 100 N5        30.03R FOG
NORTHERLY ISL    N/A     63  61  93 CALM        N/A
$$

LMZ740>746-301000-
SOUTHERN LAKE MICHIGAN

STATION/POSITION SKY/WX   TEMP    WIND        PRES    VSBY  WAVE
                          AIR SEA DIR/SP/G                  HT/PER
                          (F)     (DEG/KT/KT) (MB)    (MI)  (FT/S)
SOUTHERN BUOY              67 68   20/  4/  4 1015.7F         1
WILMETTE HARBOR            60 58  140/  6/  6   N/A           1/ 3
HARRISON CRIB              62     320/ 11/ 13   N/A
BURNHAM HARBOR             63      CALM  /  3   N/A
BURNS HARBOR               68     340/  3/  3 1016.9S
MICHIGAN CITY              67     310/  3/  4   N/A
MICHIGAN CITY 6N           68 71  340/  8/ 10   N/A           1/ 3
ST. JOSEPH                 68 70  360/  4/  6   N/A           1
$$

ILZ025>027-034>036-040-047-049-050-058-095>099-301000-
WEST-CENTRAL ILLINOIS

CITY           SKY/WX    TMP DP  RH WIND       PRES   REMARKS
QUINCY         FOG       67  66  97 N6        30.01S VSB 1
GALESBURG*     FOG       63  62  97 CALM      30.03S VSB 1/4
MACOMB*        CLOUDY    67  67  99 CALM      30.04S FOG
JACKSONVILLE*  CLEAR     68  66  95 CALM      30.01R FOG
PITTSFIELD*    FOG       68  66  95 CALM      30.02R VSB 1/4
$$

ILZ028>032-037-038-041>044-048-051>054-059>061-301000-
CENTRAL ILLINOIS

CITY           SKY/WX    TMP DP  RH WIND       PRES   REMARKS
PONTIAC        CLOUDY    68  68 100 CALM      30.03S FOG
BLOOMINGTON    MOCLDY    68  68 100 N3        30.03S FOG
DECATUR        PTCLDY    69  65  86 SW3       30.02S
PEORIA         CLOUDY    71  67  87 NE3       30.02R
LACON*         FOG       64  62  96 CALM      30.01S VSB 1/2
LINCOLN*       CLOUDY    71  67  88 CALM      30.01S
SPRINGFIELD    PTCLDY    67  65  93 CALM      30.01R
TAYLORVILLE    CLEAR     64  64 100 S3        30.01S
$$

ILZ033-039-045-046-055>057-062-063-301000-
EAST-CENTRAL ILLINOIS

CITY           SKY/WX    TMP DP  RH WIND       PRES   REMARKS
CHAMPAIGN      CLEAR     65  64  97 S5        30.02S FOG
RANTOUL*       MOCLDY    68  68  98 SE3       30.02R FOG
MATTOON        CLEAR     68  63  84 S3        30.02S
PARIS*         CLEAR     65  64  97 S3        30.04R
$$

ILZ079-100>102-301000-
SOUTHWEST ILLINOIS

CITY           SKY/WX    TMP DP  RH WIND       PRES   REMARKS
ALTON          PTCLDY    66  65  96 SE3       30.01S
BELLEVILLE     PTCLDY    68  66  94 W2        30.00S
CAHOKIA*       PTCLDY    70  64  81 CALM      30.00F
SPARTA*        PTCLDY    70  66  88 S5        30.01F
$$

ILZ064>066-069>071-074>076-080>082-084>086-088>090-092>094-301000-
SOUTH-CENTRAL ILLINOIS

CITY           SKY/WX    TMP DP  RH WIND       PRES   REMARKS
CARBONDALE     CLOUDY    70  68  93 SE3       30.02S
CAIRO*         CLOUDY    70  70 100 CALM      30.03F FOG
EFFINGHAM*     CLOUDY    66  63  89 E3        30.04R
MARION         RAIN      72  68  88 S6        30.03S
MT. VERNON     CLOUDY    66  63  88 CALM      30.03S
SALEM*         MOCLDY    69  64  86 CALM      30.02R
METROPOLIS*    CLOUDY    72  71  97 S5        30.05S
$$

ILZ067-068-072-073-078-083-087-091-301000-
SOUTHEAST ILLINOIS

CITY           SKY/WX    TMP DP  RH WIND       PRES   REMARKS
LAWRENCEVILLE  PTCLDY    68  67  96 CALM      30.03S FOG
FLORA*         PTCLDY    66  64  93 CALM      30.03S
FAIRFIELD*     PTCLDY    64  64  99 CALM      30.02S FOG
HARRISBURG*    MOCLDY    71  69  96 CALM      30.03F
ROBINSON*      PTCLDY    66  65  97 CALM      30.04S FOG
CARMI*         MOCLDY    68  68  99 S3        30.02S FOG
$$

ABBREVIATIONS USED IN REMARKS
   TC - TEMPERATURE IN CELSIUS
  WCI - WIND CHILL INDEX
   HX - HEAT INDEX
  VSB - VISIBILITY
$$



USA.gov is the U.S. government's official web portal to all federal, state and local government web resources and services.